Location: *
(50.2903°S, 172.5375°W)
Time: 20:17:12
(UTC+00:00)

Cosmos 841 Rocket - Pass Details

Date: 17 November 2019
Orbit: 747 x 772 km, 74.0° (Epoch: 06 December)

Event Time Altitude Azimuth Distance (km) Brightness Sun altitude
Exits shadow 14:36:15 - 342° (NNW) 2,649 5.8 -7.8°
Reaches altitude 10° 14:37:12 10° 342° (NNW) 2,277 5.4 -7.7°
Maximum altitude 14:42:22 80° 68° (ENE) 776 3.6 -7.1°
Drops below altitude 10° 14:47:36 10° 154° (SSE) 2,309 7.3 -6.4°
Sets 14:50:00 0° 155° (SSE) 3,243 8.1 -6.1°
